Duncan, OK

3:33 AM CDT on September 15, 2019 (GMT -0500)
Halliburton

Weather History for KDUC - August, 2019

Change the Weather History Date:

Sunday, August 25, 2019

  Actual Average (KLAW) Record (KLAW)
Temperature  
Mean Temperature 82 °F 82 °F  
Max Temperature 92 °F 95 °F 109 °F (1922)
Min Temperature 71 °F 70 °F 55 °F (1966)
Degree Days  
Heating Degree Days 0 0  
Month to date heating degree days 0  
Since 1 June heating degree days 0  
Since 1 July heating degree days 0  
Cooling Degree Days 16 17  
Month to date cooling degree days 490  
Year to date cooling degree days 1817  
Since 1 June cooling degree days 1524  
Growing Degree Days 32 (Base 50)    
Moisture  
Dew Point 72 °F    
Average Humidity 77    
Maximum Humidity 97    
Minimum Humidity 53    
Precipitation  
Precipitation 0.00 in 0.11 in 3.25 in (2017)
Month to date precipitation 2.11  
Year to date precipitation 20.06  
Sea Level Pressure  
Sea Level Pressure 29.86 in    
Wind  
Wind Speed 9 mph (SE)    
Max Wind Speed 17 mph    
Max Gust Speed 24 mph    
Visibility 10 miles    
Events      
T = Trace of Precipitation, MM = Missing Value Source: NWS Daily Summary

Daily Weather History Graph

Daily Weather History Graph

Search for Another Location

Airport or City:

Astronomy

Aug. 25, 2019 Rise Set
Actual Time 6:59 AM CDT 8:07 PM CDT
Civil Twilight 6:33 AM CDT 8:33 PM CDT
Nautical Twilight 6:02 AM CDT 9:04 PM CDT
Astronomical Twilight 5:30 AM CDT 9:36 PM CDT
Moon 1:43 AM CDT (8/25) 4:21 PM CDT (8/25)
Length of Visible Light 13h 59m
Length of Day
13h 07m
Waning Crescent, 29% of the Moon is Illuminated
Aug 25
Waning Crescent
Aug 30
New
Sep 5
First Quarter
Sep 13
Full
Sep 21
Last Quarter

Hourly Weather History & Observations

Time (CDT) Temp. Heat Index Dew Point Humidity Pressure Visibility Wind Dir Wind Speed Gust Speed Precip Events Conditions
12:15 AM 72.3 °F - 69.6 °F 91% 29.93 in 10.0 mi ESE 6.9 mph - N/A   Clear
12:35 AM 71.8 °F - 69.4 °F 92% 29.94 in 10.0 mi SE 4.6 mph - N/A   Clear
12:55 AM 72.0 °F - 69.6 °F 92% 29.94 in 10.0 mi ESE 4.6 mph - N/A   Clear
1:15 AM 72.7 °F - 70.3 °F 92% 29.93 in 10.0 mi SE 8.1 mph - N/A   Clear
1:55 AM 73.4 °F - 70.9 °F 92% 29.92 in 10.0 mi ESE 9.2 mph - N/A   Clear
2:15 AM 73.0 °F - 70.9 °F 93% 29.92 in 10.0 mi ESE 6.9 mph - N/A   Clear
2:35 AM 72.5 °F - 70.9 °F 95% 29.91 in 10.0 mi SE 5.8 mph - N/A   Clear
2:55 AM 72.7 °F - 71.1 °F 95% 29.90 in 10.0 mi SE 5.8 mph - N/A   Clear
3:15 AM 73.0 °F - 71.1 °F 93% 29.91 in 10.0 mi SE 3.5 mph - N/A   Clear
3:35 AM 72.5 °F - 70.7 °F 94% 29.92 in 10.0 mi Calm Calm - N/A   Clear
3:55 AM 72.1 °F - 70.7 °F 95% 29.92 in 10.0 mi Calm Calm - N/A   Clear
4:15 AM 71.6 °F - 70.2 °F 95% 29.93 in 10.0 mi NE 4.6 mph - N/A   Clear
4:35 AM 72.1 °F - 70.9 °F 96% 29.93 in 10.0 mi NE 4.6 mph - N/A   Clear
4:55 AM 72.1 °F - 70.9 °F 96% 29.92 in 10.0 mi East 5.8 mph - N/A   Clear
5:35 AM 72.7 °F - 71.1 °F 95% 29.92 in 10.0 mi East 6.9 mph - N/A   Clear
6:15 AM 72.3 °F - 71.2 °F 96% 29.91 in 10.0 mi ESE 8.1 mph - N/A   Clear
6:35 AM 72.0 °F - 71.1 °F 97% 29.90 in 10.0 mi SE 6.9 mph - N/A   Clear
6:55 AM 72.0 °F - 71.1 °F 97% 29.90 in 10.0 mi SSE 5.8 mph - N/A   Clear
7:15 AM 72.1 °F - 71.2 °F 97% 29.89 in 10.0 mi SSE 5.8 mph - N/A   Clear
7:35 AM 72.5 °F - 71.6 °F 97% 29.89 in 10.0 mi SE 6.9 mph - N/A   Clear
8:15 AM 74.1 °F - 72.3 °F 94% 29.91 in 10.0 mi South 9.2 mph - N/A   Clear
8:35 AM 75.2 °F - 72.5 °F 91% 29.92 in 10.0 mi South 9.2 mph - N/A   Clear
8:55 AM 76.5 °F - 72.7 °F 88% 29.91 in 10.0 mi South 11.5 mph - N/A   Clear
9:15 AM 77.4 °F - 72.5 °F 85% 29.92 in 10.0 mi SSE 6.9 mph - N/A   Clear
9:35 AM 79.0 °F - 73.0 °F 82% 29.91 in 10.0 mi SSE 5.8 mph - N/A   Mostly Cloudy
9:55 AM 79.7 °F - 72.9 °F 80% 29.91 in 10.0 mi SE 3.5 mph - N/A   Mostly Cloudy
10:15 AM 81.0 °F 85.4 °F 72.5 °F 75% 29.94 in 10.0 mi ENE 8.1 mph - N/A   Mostly Cloudy
10:35 AM 82.9 °F 88.8 °F 73.0 °F 72% 29.95 in 10.0 mi ENE 9.2 mph - N/A   Scattered Clouds
10:55 AM 81.3 °F 86.1 °F 72.9 °F 75% 29.96 in 10.0 mi NE 12.7 mph 19.6 mph N/A   Mostly Cloudy
11:15 AM 82.4 °F 87.9 °F 72.9 °F 73% 29.90 in 10.0 mi ESE 11.5 mph - N/A   Scattered Clouds
11:55 AM 82.9 °F 88.8 °F 73.0 °F 72% 29.90 in 10.0 mi East 15.0 mph 20.7 mph N/A   Scattered Clouds
12:15 PM 84.2 °F 90.6 °F 73.0 °F 69% 29.90 in 10.0 mi ESE 13.8 mph - N/A   Clear
12:35 PM 84.2 °F 90.6 °F 72.9 °F 69% 29.89 in 10.0 mi ESE 16.1 mph - N/A   Scattered Clouds
1:15 PM 87.4 °F 95.3 °F 73.2 °F 63% 29.88 in 10.0 mi SE 13.8 mph 19.6 mph N/A   Clear
1:35 PM 88.5 °F 95.8 °F 72.7 °F 59% 29.87 in 10.0 mi SE 13.8 mph 20.7 mph N/A   Scattered Clouds
1:55 PM 89.2 °F 96.9 °F 72.7 °F 58% 29.86 in 10.0 mi SE 17.3 mph - N/A   Mostly Cloudy
2:15 PM 88.5 °F 95.3 °F 72.1 °F 58% 29.85 in 7.0 mi ESE 13.8 mph 24.2 mph N/A   Mostly Cloudy
2:35 PM 89.2 °F 96.9 °F 72.5 °F 58% 29.84 in 10.0 mi SE 16.1 mph - N/A   Mostly Cloudy
2:55 PM 89.6 °F 96.6 °F 72.1 °F 56% 29.83 in 10.0 mi SE 16.1 mph 19.6 mph N/A   Mostly Cloudy
3:15 PM 91.9 °F 100.1 °F 72.3 °F 53% 29.81 in 10.0 mi SSE 16.1 mph - N/A   Mostly Cloudy
3:35 PM 90.3 °F 97.2 °F 71.6 °F 54% 29.80 in 10.0 mi SE 15.0 mph 20.7 mph N/A   Scattered Clouds
3:55 PM 91.6 °F 99.3 °F 72.3 °F 53% 29.79 in 10.0 mi SE 16.1 mph 24.2 mph N/A   Scattered Clouds
4:15 PM 91.0 °F 99.3 °F 72.9 °F 55% 29.78 in 10.0 mi SE 15.0 mph 21.9 mph N/A   Scattered Clouds
4:55 PM 91.0 °F 99.3 °F 72.9 °F 55% 29.77 in 10.0 mi SE 16.1 mph - N/A   Scattered Clouds
5:15 PM 91.9 °F 100.7 °F 73.0 °F 54% 29.76 in 10.0 mi SE 16.1 mph - N/A   Mostly Cloudy
5:35 PM 92.3 °F 100.9 °F 72.9 °F 53% 29.76 in 10.0 mi SSE 12.7 mph 18.4 mph N/A   Mostly Cloudy
5:55 PM 91.9 °F 100.7 °F 73.2 °F 54% 29.76 in 10.0 mi SE 17.3 mph - N/A   Mostly Cloudy
6:15 PM 91.6 °F 100.5 °F 73.4 °F 55% 29.76 in 7.0 mi SE 16.1 mph - N/A   Scattered Clouds
6:35 PM 91.0 °F 100.4 °F 73.8 °F 57% 29.76 in 10.0 mi SE 15.0 mph - N/A   Scattered Clouds
6:55 PM 90.1 °F 99.4 °F 73.9 °F 59% 29.76 in 10.0 mi SE 15.0 mph 20.7 mph N/A   Clear
7:35 PM 88.0 °F 97.5 °F 74.7 °F 65% 29.76 in 10.0 mi ESE 11.5 mph 18.4 mph N/A   Clear
7:55 PM 86.0 °F 95.1 °F 75.2 °F 70% 29.76 in 10.0 mi ESE 12.7 mph - N/A   Clear
8:15 PM 85.5 °F 93.8 °F 74.5 °F 70% 29.77 in 10.0 mi ESE 12.7 mph - N/A   Clear
8:35 PM 84.6 °F 92.4 °F 74.5 °F 72% 29.77 in 10.0 mi ESE 11.5 mph - N/A   Clear
8:55 PM 83.7 °F 91.0 °F 74.5 °F 74% 29.77 in 10.0 mi ESE 12.7 mph - N/A   Clear
9:15 PM 82.9 °F 89.7 °F 74.5 °F 75% 29.78 in 10.0 mi ESE 10.4 mph - N/A   Clear
9:35 PM 82.4 °F 88.7 °F 74.3 °F 76% 29.78 in 10.0 mi ESE 10.4 mph - N/A   Clear
9:55 PM 81.9 °F 87.7 °F 73.9 °F 77% 29.79 in 10.0 mi ESE 10.4 mph - N/A   Clear
10:15 PM 81.5 °F 86.9 °F 73.8 °F 77% 29.79 in 10.0 mi ESE 10.4 mph - N/A   Clear
10:35 PM 81.0 °F 86.0 °F 73.6 °F 78% 29.79 in 10.0 mi ESE 10.4 mph - N/A   Clear
11:15 PM 80.8 °F 85.1 °F 72.3 °F 75% 29.79 in 10.0 mi SE 10.4 mph - N/A   Clear
11:35 PM 80.6 °F 84.7 °F 72.0 °F 75% 29.79 in 10.0 mi SE 11.5 mph - N/A   Clear
11:55 PM 80.6 °F 84.9 °F 72.5 °F 76% 29.79 in 10.0 mi SE 11.5 mph - N/A   Clear